NOAA 16 DEB, 42335

Orbit data source: Space-Track

NOAA 16 DEB, 42335 is space debris in SSO originally from a launch on Thu, 21 Sep 2000 UTC launched from the Air Force Western Test Range (AFWTR). Debris objects in space refer to the collection of defunct objects orbiting the Earth. Examples of debris include non-operational satellites, rocket bodies, and fragments generated from explosions, collisions, or faulty payload assembly.

Loading next visibility...
Identifier
42335, 2000-055QB
Orbit
SSO
Country
Flag of USUS
Related business
Manufacturer
Unknown
Mission
Spacecraft
Bus & Motor
Unknown
Mass
Unknown
Launch date (UTC)
2000-09-21 (26 years ago)
Launch vehicle
Unknown
Launch site
Air Force Western Test Range (AFWTR)
Object type
Payload
Rocket body
Debris
Shape & HBR
Unknown shape, 0.1 m
Radar Cross Section
Medium (>0.1 m² and <1 m²)

Expand to show TLE details & history
Last TLE update: 2 days ago

TLE from 2 days ago
0 NOAA 16 DEB
1 42335U 00055QB  26170.94835599  .00003128  00000-0  10850-2 0  9995
2 42335  98.5574 229.8502 0025437 180.3716 179.7455 14.36110872533600
Epoch: 2026-06-19T22:45Z
TLE epoch observation values (Epoch: 2026-06-19T22:45:37.957Z)
Latitude
-0.00004°
Longitude
-19.72796°
Altitude
792.508 km
Speed
7.448 km/s
True Right ascension
15h 19m 24s
True Declination
0° 00' 00"
Sunlit
Object was in full shadow at epoch
Visualization orbit readout
Latitude
Unknown
Longitude
Unknown
Altitude
Unknown
Speed
Unknown
Apparent Right ascension
Unknown
Apparent Declination
Unknown
Sunlit
N/A
Visualization observer readout
Local Sidereal Time
21:38:06
Azimuth
Unknown
Elevation
Unknown
Doppler factor
Unknown
Orbital elements
Apogee altitude
786.686 km
Perigee altitude
750.328 km
Semi-major axis
7,146.644 km
Eccentricity
0.00254
Inclination
98.5574°
RAAN
229.8502°
Arg. of periapsis
180.3716°
True anomaly
179.74679°
Mean anomaly
179.7455°
Eccentric anomaly
179.74615°
Mean motion
3.59244 °/min
Orbital period
100.21 mins
BSTAR
0.001085
Loading maneuver chart data...
Computing Atmospheric mass density...
Loading historical data...
Loading historical data...
Loading historical data...
Loading historical data...
Loading historical data...
Loading historical data...
Loading historical data...

Documentation

Showing up to 5 results
|